Location: Caltech
(34.1382°N, 118.1253°W)
Time: 22:05:37
(UTC-07:00)

KITSAT 1 - Visible Passes

Search period start: 25 July 2014 00:00
Search period end: 04 August 2014 00:00
Orbit: 1310 x 1321 km, 66.1° (Epoch: 25 July)

Date Brightness Start Highest point End Pass type
(mag) Time Alt. Az. Time Alt. Az. Time Alt. Az.
25 Jul 12.8 05:11:26 10° ESE 05:14:17 12° E 05:17:07 10° ENE visible
26 Jul 12.4 05:24:13 10° SSE 05:29:55 21° ESE 05:35:36 10° ENE visible
29 Jul 12.7 04:20:56 10° ESE 04:23:22 12° E 04:25:48 10° E visible
30 Jul 12.3 04:33:26 10° SSE 04:39:00 21° ESE 04:44:33 10° ENE visible
31 Jul 11.7 04:47:46 10° SSE 04:54:44 33° ESE 05:01:42 10° NE visible
01 Aug 11.0 05:02:51 10° S 05:10:35 51° ESE 05:18:19 10° NE visible
02 Aug 12.6 03:30:31 10° ESE 03:32:27 11° E 03:34:24 10° E visible
02 Aug 10.5 05:18:28 10° SSW 05:26:32 77° ESE 05:34:38 10° NNE visible
03 Aug 12.2 03:42:40 10° SE 03:48:05 20° ESE 03:53:29 10° ENE visible
03 Aug 10.3 05:34:32 10° SSW 05:42:37 74° WNW 05:50:44 10° NNE visible
